Theta_e
345 350 349 343 338 334 334 336 342 343 343 342 339 338 339 335 333 336 333 332 331 327
337 349 351 345 348 340 341 336 343 341 342 342 339 338 339 334 334 335 335 334 332 328
349 357 358 350 345 344 343 342 341 341 342 341 339 338 339 337 336 335 331 329 331 330
354 353 351 348 341 342 342 341 339 338 337 337 337 340 340 340 334 332 333 331 329 328
351 351 341 343 342 335 334 343 340 339 336 335 334 338 336 335 331 330 330 331 330 327
349 343 338 334 334 333 334 335 337 336 333 333 336 335 336 332 329 330 330 330 329 327
344 336 334 333 334 336 333 334 335 335 334 335 335 336 336 333 333 332 330 331 330 328
340 334 334 335 330 337 335 333 333 334 335 337 336 333 338 336 334 333 332 331 329 328
338 336 333 334 331 338 338 336 333 332 332 334 333 316 318 332 336 333 331 329 328 328
337 333 331 332 333 334 339 339 335 334 332 332 334 309 311 316 335 333 330 328 327 325
332 333 332 331 331 331 339 340 335 337 336 334 328 305 305 309 330 329 328 328 326 325
329 331 332 330 330 331 338 338 337 338 338 338 318 302 302 310 325 326 326 325 324 322
325 331 331 331 329 328 340 337 335 337 340 327 321 300 300 307 322 324 321 324 323 309
321 333 333 333 335 329 335 336 336 336 339 334 320 308 299 303 318 317 317 316 315 316
Wind_Speed
9 13 15 16 12 11 11 13 14 11 10 10 10 8 7 6 5 5 4 3 3 4
20 24 19 18 13 11 10 12 15 13 11 11 11 10 9 5 5 5 5 4 2 4
19 17 16 16 16 14 12 12 17 14 12 11 11 11 10 8 7 6 5 3 3 1
17 18 12 14 14 8 8 8 11 14 12 11 11 10 9 8 9 8 6 3 4 2
16 15 14 14 12 7 8 5 11 12 13 12 13 11 11 9 10 10 8 7 4 3
15 14 15 14 15 14 14 8 11 11 13 13 12 13 12 12 10 10 8 5 4 3
11 13 13 14 17 20 22 20 15 15 14 13 12 11 11 12 10 9 8 6 4 4
15 15 16 14 15 19 22 22 23 19 15 13 12 11 12 11 10 9 8 6 5 7
15 16 16 16 20 22 21 22 22 19 22 18 10 13 14 10 9 10 8 6 5 7
13 11 13 15 17 20 20 19 19 18 17 16 17 17 16 9 10 8 7 7 5 7
8 15 15 16 17 17 17 17 17 17 17 14 10 15 15 12 9 8 8 7 6 8
12 8 14 16 14 13 18 16 16 15 17 16 13 16 15 12 9 9 9 8 7 7
10 6 6 14 15 14 14 16 14 15 16 16 15 12 14 9 7 8 7 7 8 9
10 9 6 10 12 14 13 16 16 16 14 15 16 13 10 7 6 5 5 5 6 7
Wind_Direction
140 234 207 178 188 192 185 172 160 181 177 183 180 179 186 185 192 126 144 105 29 324
195 208 206 175 185 194 184 170 159 176 180 183 178 182 184 193 184 169 192 137 152 295
205 205 194 173 182 195 180 186 157 173 183 180 185 186 192 151 167 192 194 192 161 293
209 200 181 169 179 197 163 119 168 167 182 180 187 189 194 200 163 186 185 173 197 197
214 188 166 170 154 167 110 110 186 178 188 193 195 190 192 200 183 193 193 200 208 256
203 175 171 154 148 133 115 211 214 190 188 200 200 197 199 200 198 206 199 209 225 262
175 153 164 159 165 164 165 178 214 201 195 197 199 197 203 205 202 208 211 195 243 269
156 164 173 182 185 192 192 187 177 184 190 191 196 199 200 205 202 206 217 205 228 255
158 164 185 192 190 201 194 189 188 186 173 174 196 190 179 197 201 206 211 226 241 275
153 163 182 192 197 201 203 192 188 185 181 179 180 154 145 147 198 207 220 225 251 279
205 182 182 198 202 209 205 196 190 188 180 182 148 138 139 144 195 209 235 249 253 266
343 199 190 189 193 205 204 196 194 184 177 177 147 142 139 157 193 218 228 245 256 270
336 301 223 184 184 199 211 190 184 184 180 149 145 143 143 179 218 211 233 241 258 211
9 324 223 193 182 191 201 185 194 181 172 143 143 149 142 168 235 248 251 283 300 299